This is the latest recevied weather packets stored in our database for station/object KC9GSD. If no packets are shown the sender has not sent any weather packets the latest 10 day(s).
| Time | Temp. | Humidity | Pressure | Rain* | Wind** | Luminosity | Snow |
|---|---|---|---|---|---|---|---|
| 1778193022 | 17.78° C | 67% | 1014 hPa | 0 mm | - | 77 W/m² | - |
| 1778192719 | 17.78° C | 67% | 1014.1 hPa | 0 mm | - | 103 W/m² | - |
| 1778192415 | 17.78° C | 69% | 1014 hPa | 0 mm | - | 104 W/m² | - |
| 1778192112 | 17.78° C | 66% | 1013.9 hPa | 0 mm | - | 121 W/m² | - |
| 1778191809 | 18.33° C | 67% | 1014 hPa | 0 mm | - | 121 W/m² | - |
| 1778191506 | 18.33° C | 68% | 1013.5 hPa | 0 mm | - | 150 W/m² | - |
| 1778191203 | 18.33° C | 68% | 1013.5 hPa | 0 mm | - | 138 W/m² | - |
| 1778190899 | 18.33° C | 64% | 1013.7 hPa | 0 mm | - | 150 W/m² | - |
| 1778190597 | 18.33° C | 66% | 1013.9 hPa | 0 mm | - | 161 W/m² | - |
| 1778190294 | 18.33° C | 62% | 1013.5 hPa | 0 mm | - | 200 W/m² | - |
| 1778189989 | 18.89° C | 67% | 1013.3 hPa | 0 mm | - | 173 W/m² | - |
| 1778189686 | 18.89° C | 66% | 1013.5 hPa | 0 mm | - | 188 W/m² | - |
| 1778189383 | 19.44° C | 64% | 1013.5 hPa | 0 mm | - | 140 W/m² | - |
| 1778189078 | 20° C | 62% | 1013.4 hPa | 0 mm | - | 336 W/m² | - |
| 1778188776 | 19.44° C | 61% | 1013.4 hPa | 0 mm | - | 618 W/m² | - |
| 1778188473 | 19.44° C | 66% | 1013.4 hPa | 0 mm | - | 225 W/m² | - |
| 1778188170 | 20° C | 62% | 1013.2 hPa | 0 mm | - | 204 W/m² | - |
| 1778187867 | 20° C | 64% | 1013.4 hPa | 0 mm | - | 380 W/m² | - |
| 1778187563 | 18.89° C | 67% | 1013.2 hPa | 0 mm | - | 264 W/m² | - |
| 1778187260 | 18.89° C | 64% | 1013.1 hPa | 0 mm | - | 269 W/m² | - |
| 1778186956 | 18.89° C | 65% | 1013.3 hPa | 0 mm | - | 190 W/m² | - |
| 1778186653 | 20° C | 64% | 1013.5 hPa | 0 mm | - | 245 W/m² | - |
| 1778186351 | 19.44° C | 67% | 1013.2 hPa | 0 mm | - | 814 W/m² | - |
| 1778186048 | 18.33° C | 68% | 1013.4 hPa | 0 mm | - | 239 W/m² | - |
| 1778185744 | 18.33° C | 70% | 1013.3 hPa | 0 mm | - | 147 W/m² | - |
* Rain latest hour (hover to see other rain measurements)
** Current wind speed in m/s (hover to see current wind gust speed)